Wind_Speed
14 14 13 13 13 13 14 15 15 14 13 13 13 12 11 10 10 9 8 7 6 5 5 4 3 3 3 3 2 2 1 1 1 0 1 2 2 3 3 4 5 6 7
13 13 12 12 12 12 12 13 14 14 14 12 12 12 11 10 9 8 7 6 5 5 5 5 4 4 3 3 3 2 2 1 1 1 2 2 3 4 4 5 6 7 8
12 12 12 11 11 11 11 12 13 13 13 13 13 12 11 10 9 8 7 6 5 5 4 4 4 4 3 3 3 3 2 2 2 3 3 4 4 5 6 6 7 7 8
10 11 10 9 9 9 10 10 11 11 11 11 12 12 11 10 9 8 6 5 5 5 4 4 4 3 3 3 4 3 3 3 3 3 4 5 6 6 7 7 7 8 9
9 9 9 9 8 9 9 10 10 10 10 11 11 11 11 11 10 8 7 6 5 5 5 4 4 4 4 4 4 3 4 4 4 5 5 6 7 7 7 8 9 9 9
7 7 8 7 7 8 8 9 9 9 10 10 11 11 11 11 10 10 9 7 6 6 6 5 4 5 5 5 4 4 5 5 5 6 6 7 7 8 8 9 9 9 9
6 6 6 6 6 6 7 8 8 9 9 9 9 10 10 10 10 9 9 8 8 7 6 6 5 5 5 5 6 5 5 6 7 7 8 8 8 9 9 9 10 10 10
5 5 6 6 6 6 7 8 8 9 9 9 9 9 10 10 10 9 9 8 8 8 7 6 6 6 5 5 6 6 7 7 8 8 9 9 9 10 10 11 11 11 12
5 5 6 6 6 6 7 8 8 9 9 9 9 9 9 9 9 10 9 9 9 8 8 7 7 6 6 6 6 7 7 8 8 8 9 10 10 11 11 12 12 12 13
6 6 6 6 7 7 8 9 10 9 8 8 9 9 9 9 10 10 10 9 9 9 8 8 8 7 7 7 7 8 9 9 9 9 10 10 11 12 12 12 12 13 12
8 7 7 8 8 8 9 9 9 9 9 9 9 9 10 10 10 11 11 10 10 10 10 10 9 9 8 8 8 9 9 10 10 11 11 12 12 12 12 12 13 13 13
10 9 9 9 10 11 11 10 10 10 10 11 11 11 11 11 11 11 11 11 11 11 11 11 11 11 10 10 10 10 11 12 12 13 13 14 14 14 14 14 14 14 15
12 12 12 12 12 12 11 11 12 12 12 12 12 12 12 12 12 13 12 12 11 11 12 12 12 13 13 14 14 14 14 14 14 15 15 15 15 15 15 14 14 15 15
14 14 14 14 14 13 13 13 14 14 14 14 14 14 14 14 14 14 14 13 13 13 13 14 14 14 15 15 15 16 16 16 16 16 16 16 16 16 17 17 17 16 16
17 16 16 15 16 16 15 15 15 15 16 16 16 17 16 16 16 16 16 16 16 15 15 15 16 16 16 16 17 17 18 18 17 17 17 17 17 18 18 18 18 17 17
19 18 18 18 18 17 17 17 17 18 18 18 19 19 19 19 19 18 18 18 18 18 18 17 18 17 17 18 19 19 19 19 19 18 18 18 18 18 18 19 19 19 19
22 21 21 21 20 20 20 20 19 20 20 20 21 21 21 21 20 20 20 20 19 20 20 20 20 19 19 20 20 21 21 20 20 20 20 20 20 19 19 19 19 20 20
24 24 24 24 23 23 23 22 22 22 22 23 23 23 23 23 23 22 22 22 22 22 22 22 22 21 21 22 22 22 22 22 21 21 21 21 21 21 21 20 20 20 21
26 26 27 26 26 26 25 25 25 25 25 26 25 25 25 25 25 25 25 25 25 24 24 24 24 24 23 23 23 23 24 23 23 22 22 23 22 22 22 22 22 21 21
29 29 29 29 29 29 28 28 28 28 29 29 29 28 28 27 27 27 27 26 26 26 25 25 25 25 25 25 25 25 25 24 24 24 24 24 23 23 23 23 23 22 23
31 31 31 31 31 31 31 31 31 31 32 32 32 31 30 29 29 28 28 27 27 27 26 27 27 27 26 26 26 26 25 25 25 25 25 25 25 24 24 24 24 24 24
34 34 33 33 33 34 34 33 33 33 33 33 33 33 32 31 30 30 29 28 28 27 27 27 27 27 27 27 27 27 27 26 26 26 26 26 25 25 25 24 24 24 24
38 37 36 35 35 35 35 34 34 34 34 34 35 34 33 31 30 30 30 30 29 29 28 28 28 28 28 28 28 28 28 28 28 28 28 27 27 27 26 24 24 24 25
39 39 38 36 36 36 36 36 35 35 35 36 36 35 34 32 31 31 31 30 30 30 29 29 29 28 28 28 28 29 29 29 29 29 29 28 27 28 27 27 26 25 25
40 39 38 37 36 37 38 38 38 38 37 36 36 36 36 35 33 32 32 32 31 30 29 28 28 28 28 28 29 30 30 30 30 29 29 29 29 29 29 28 28 27 27
41 40 39 38 37 38 38 38 38 37 36 36 36 36 37 36 35 34 33 33 32 31 30 30 29 29 29 29 29 30 30 30 30 29 29 29 30 30 30 31 30 29 29
Wind_Direction
31 35 38 41 45 49 51 52 51 52 55 54 52 51 51 51 52 50 49 46 48 47 41 52 53 52 46 31 29 27 33 22 11 277 231 248 268 276 280 274 268 268 270
27 32 36 39 43 48 51 51 51 50 49 50 48 48 47 46 46 45 42 42 43 36 37 44 43 42 36 24 17 20 29 13 327 300 294 290 278 280 286 285 279 276 275
22 27 32 37 40 44 46 47 48 47 46 44 42 42 41 41 38 38 39 40 32 30 30 32 28 27 21 13 13 13 10 353 323 293 289 295 288 281 284 285 283 276 275
19 24 29 32 36 38 39 40 41 43 43 39 36 34 34 33 31 32 33 31 28 30 24 15 12 11 14 7 1 358 348 330 318 307 294 291 292 286 283 286 283 277 277
15 19 27 29 32 34 34 34 34 38 37 37 33 32 31 29 26 25 23 23 21 19 16 3 353 353 355 346 339 340 336 328 314 304 296 293 295 291 286 289 288 286 284
10 16 22 23 25 28 26 25 26 26 26 27 26 25 26 25 23 21 20 18 12 7 5 357 343 339 336 335 328 322 318 316 317 311 303 298 298 295 292 291 289 287 289
358 5 6 7 14 18 16 15 17 16 14 15 15 16 15 15 15 14 13 11 8 5 0 355 347 339 330 329 323 316 315 313 312 310 308 305 301 297 294 291 289 287 286
334 343 345 348 350 356 2 4 4 1 3 6 6 4 4 4 6 5 2 0 358 357 355 351 344 338 331 324 320 316 310 307 308 309 309 306 304 299 294 293 292 288 286
317 327 328 329 332 336 347 348 345 343 348 353 354 355 355 355 353 352 351 349 347 345 346 346 341 335 328 319 312 312 308 308 306 310 311 308 306 303 298 294 293 290 288
303 315 318 324 327 329 331 333 337 333 336 337 342 346 348 347 344 343 342 341 339 336 331 329 329 325 320 313 309 309 309 309 311 310 311 310 308 306 304 300 297 296 292
287 297 311 314 316 316 320 324 323 326 326 327 328 331 335 335 337 337 335 333 329 326 324 319 316 314 312 309 307 309 313 313 311 309 306 306 306 304 302 299 295 292 291
281 285 294 300 305 309 310 310 314 316 314 313 316 321 322 324 324 330 327 326 323 319 316 313 311 308 307 306 306 305 306 305 305 303 302 301 301 300 298 296 292 290 289
280 284 289 294 297 302 303 302 304 306 307 307 309 311 312 314 316 318 319 319 320 320 315 311 308 305 305 303 303 304 303 303 303 302 300 298 299 298 298 297 295 291 291
272 277 282 287 291 293 296 299 300 301 303 304 304 305 305 304 306 310 312 313 313 312 309 309 305 302 304 303 300 301 304 303 302 301 299 295 295 296 294 295 293 291 292
270 273 277 282 288 290 292 295 297 300 300 300 301 301 301 301 302 303 305 306 307 306 305 304 304 301 302 304 302 301 303 304 302 299 297 295 295 295 294 293 292 291 292
268 270 273 280 285 287 288 291 293 295 296 297 297 297 298 298 298 298 300 302 303 302 302 301 302 300 301 301 300 299 300 300 300 298 295 294 297 297 295 294 292 291 293
265 266 271 275 279 283 284 287 290 291 291 293 294 294 295 294 294 295 296 297 298 299 299 299 300 298 297 298 298 296 297 296 296 295 292 291 294 294 294 293 292 292 292
263 267 271 274 277 280 283 284 286 289 290 290 291 291 291 290 290 292 294 294 294 294 295 296 296 296 295 294 295 295 295 293 292 292 292 291 292 291 291 292 291 290 290
263 267 270 273 276 279 281 283 285 288 289 289 289 288 287 287 288 289 290 292 291 291 293 293 292 293 292 292 293 293 293 291 289 288 288 289 287 288 289 289 289 288 288
263 266 269 271 275 277 280 281 283 285 287 287 288 285 285 284 285 286 286 288 290 290 290 290 289 289 290 291 290 290 291 291 290 288 288 288 287 287 286 287 286 287 287
263 266 267 269 272 274 277 279 281 282 284 286 287 285 284 284 284 284 285 286 288 288 287 286 286 286 287 288 287 287 289 290 290 291 289 287 287 286 285 285 285 285 285
263 265 266 268 269 270 273 276 277 279 281 283 284 285 285 284 282 282 283 285 287 287 287 285 284 285 285 285 285 286 286 288 289 289 289 286 285 284 284 284 284 284 284
265 265 264 266 268 270 272 273 274 275 278 280 282 283 282 282 281 281 282 283 284 285 286 287 287 287 286 285 285 284 284 285 286 286 287 286 284 284 284 284 285 285 285
265 266 264 264 266 268 269 270 272 273 275 278 279 280 281 281 280 282 282 282 282 282 284 285 285 285 284 286 286 285 284 283 284 284 283 284 286 284 283 283 284 286 286
261 263 263 264 265 266 267 269 271 272 274 275 277 277 278 279 280 281 282 281 282 282 284 286 286 285 285 288 289 286 284 283 283 284 283 282 282 283 283 282 283 284 285
261 262 264 264 265 266 266 268 270 272 272 274 276 276 276 278 278 279 280 281 281 282 284 285 285 284 284 285 287 287 285 285 284 284 284 284 283 284 282 281 283 283 285
Height
5918 5916 5914 5913 5912 5910 5909 5907 5906 5904 5903 5902 5901 5899 5898 5897 5896 5895 5894 5893 5892 5891 5890 5890 5889 5889 5889 5888 5888 5887 5887 5887 5886 5886 5886 5885 5885 5885 5884 5884 5883 5882 5882
5919 5917 5916 5915 5913 5912 5911 5909 5908 5907 5905 5904 5902 5901 5899 5898 5897 5896 5895 5893 5892 5891 5890 5889 5889 5889 5888 5888 5887 5887 5886 5886 5886 5886 5885 5885 5885 5883 5883 5882 5881 5881 5880
5920 5919 5917 5916 5915 5914 5912 5911 5910 5908 5907 5905 5904 5902 5901 5899 5898 5896 5895 5894 5893 5891 5890 5889 5889 5888 5888 5888 5887 5886 5886 5885 5885 5885 5884 5884 5883 5882 5881 5880 5879 5879 5878
5921 5920 5918 5917 5916 5915 5914 5912 5911 5909 5908 5906 5905 5903 5902 5900 5899 5897 5896 5894 5893 5892 5890 5890 5889 5888 5888 5887 5886 5886 5885 5884 5884 5883 5883 5882 5882 5880 5880 5879 5878 5877 5876
5922 5921 5919 5918 5917 5916 5914 5913 5912 5910 5909 5907 5906 5904 5903 5901 5899 5897 5896 5894 5893 5892 5891 5890 5889 5888 5887 5886 5885 5885 5884 5883 5882 5882 5881 5880 5879 5878 5878 5877 5876 5874 5873
5921 5921 5920 5919 5917 5916 5915 5913 5912 5911 5909 5908 5906 5905 5903 5901 5899 5897 5896 5894 5893 5892 5890 5889 5888 5887 5886 5885 5884 5884 5883 5882 5881 5880 5879 5878 5877 5876 5875 5874 5873 5872 5871
5921 5920 5920 5919 5918 5916 5915 5914 5912 5911 5909 5908 5906 5905 5903 5901 5899 5897 5896 5894 5893 5891 5890 5889 5887 5886 5885 5884 5883 5882 5882 5881 5879 5878 5877 5876 5875 5874 5873 5871 5870 5869 5868
5920 5919 5919 5918 5917 5916 5915 5913 5912 5910 5909 5907 5906 5904 5902 5901 5899 5897 5895 5894 5892 5890 5889 5887 5886 5885 5884 5883 5882 5881 5880 5878 5877 5876 5875 5874 5872 5871 5869 5868 5867 5866 5865
5919 5918 5918 5917 5916 5915 5914 5913 5911 5910 5908 5906 5905 5904 5902 5900 5898 5896 5894 5893 5891 5889 5888 5886 5885 5883 5882 5881 5880 5879 5877 5876 5874 5873 5872 5871 5869 5868 5866 5865 5864 5863 5862
5916 5916 5916 5915 5915 5914 5913 5912 5909 5908 5907 5905 5904 5902 5901 5899 5897 5895 5893 5891 5889 5888 5886 5885 5883 5882 5881 5879 5878 5876 5875 5874 5872 5870 5869 5868 5866 5865 5863 5861 5860 5859 5858
5914 5914 5913 5913 5913 5912 5911 5910 5909 5907 5906 5904 5902 5901 5899 5897 5895 5893 5891 5889 5888 5886 5884 5883 5881 5880 5878 5877 5875 5874 5873 5871 5869 5868 5866 5865 5863 5861 5860 5858 5856 5855 5854
5911 5910 5910 5910 5910 5909 5909 5907 5906 5905 5903 5902 5900 5898 5897 5895 5893 5891 5889 5887 5885 5884 5882 5880 5879 5877 5875 5874 5872 5871 5869 5868 5866 5865 5863 5861 5859 5858 5856 5854 5853 5851 5850
5907 5907 5907 5907 5906 5906 5905 5904 5903 5902 5900 5899 5897 5896 5894 5892 5890 5888 5886 5885 5882 5881 5879 5877 5876 5874 5872 5870 5869 5867 5866 5864 5862 5860 5859 5857 5855 5854 5852 5850 5849 5847 5846
5903 5903 5903 5903 5902 5902 5901 5900 5899 5898 5897 5895 5894 5892 5891 5889 5887 5885 5884 5882 5879 5877 5875 5873 5872 5870 5868 5866 5865 5863 5862 5860 5858 5856 5854 5852 5851 5849 5848 5846 5845 5843 5841
5899 5899 5899 5898 5898 5897 5896 5896 5895 5893 5892 5891 5889 5888 5887 5885 5883 5881 5879 5877 5875 5873 5871 5869 5867 5865 5864 5862 5860 5858 5857 5855 5853 5851 5850 5848 5846 5844 5843 5841 5840 5838 5836
5893 5894 5894 5893 5892 5892 5891 5891 5890 5889 5888 5886 5884 5883 5881 5880 5878 5876 5874 5872 5870 5868 5866 5864 5862 5860 5859 5857 5855 5853 5852 5850 5848 5846 5845 5843 5841 5839 5837 5836 5835 5833 5831
5887 5888 5888 5888 5887 5886 5886 5886 5885 5883 5882 5881 5879 5877 5875 5874 5872 5870 5869 5867 5865 5863 5861 5859 5857 5855 5853 5851 5849 5847 5846 5844 5842 5840 5839 5837 5836 5834 5832 5831 5829 5828 5826
5880 5881 5881 5881 5881 5880 5880 5879 5878 5877 5876 5875 5873 5871 5869 5867 5865 5864 5862 5861 5859 5857 5855 5853 5851 5849 5847 5845 5843 5841 5839 5838 5836 5834 5833 5831 5830 5828 5826 5825 5823 5822 5820
5873 5874 5874 5874 5874 5873 5873 5872 5871 5870 5869 5867 5865 5864 5862 5860 5858 5857 5855 5853 5851 5849 5847 5845 5843 5842 5840 5838 5836 5834 5832 5831 5829 5828 5826 5825 5823 5821 5820 5818 5817 5816 5814
5865 5866 5866 5867 5867 5866 5865 5865 5864 5863 5861 5859 5857 5856 5854 5852 5851 5849 5847 5845 5843 5841 5839 5837 5836 5834 5832 5831 5829 5827 5825 5824 5822 5821 5819 5818 5816 5814 5813 5811 5810 5809 5808
5857 5858 5858 5858 5858 5857 5857 5856 5855 5854 5853 5851 5849 5847 5846 5844 5842 5841 5839 5837 5835 5833 5831 5829 5828 5826 5824 5822 5821 5819 5817 5816 5815 5813 5812 5810 5808 5807 5805 5804 5803 5802 5800
5848 5849 5849 5849 5849 5848 5847 5846 5846 5845 5844 5842 5841 5839 5837 5835 5833 5832 5830 5828 5827 5825 5823 5821 5819 5817 5815 5814 5812 5811 5809 5808 5807 5806 5804 5802 5801 5799 5797 5796 5795 5794 5793
5838 5839 5839 5839 5839 5838 5837 5836 5836 5835 5834 5833 5831 5830 5828 5825 5823 5822 5821 5819 5817 5816 5814 5812 5810 5808 5807 5805 5804 5802 5801 5799 5798 5797 5796 5794 5792 5791 5789 5788 5787 5786 5785
5827 5828 5828 5828 5828 5828 5827 5826 5826 5825 5824 5823 5822 5820 5818 5816 5815 5813 5811 5809 5808 5806 5804 5803 5802 5800 5799 5797 5795 5794 5792 5791 5789 5788 5787 5785 5784 5783 5782 5781 5780 5778 5777
5816 5817 5817 5817 5818 5818 5817 5816 5815 5815 5814 5813 5812 5811 5809 5808 5806 5804 5802 5801 5799 5797 5796 5794 5793 5792 5791 5789 5787 5785 5784 5782 5781 5779 5778 5777 5776 5775 5774 5772 5771 5770 5769
5804 5806 5806 5807 5807 5807 5806 5806 5805 5804 5803 5802 5801 5800 5799 5798 5796 5794 5793 5791 5790 5789 5787 5785 5784 5783 5782 5780 5779 5777 5775 5773 5772 5770 5769 5768 5767 5766 5765 5764 5763 5762 5761